Inquirer Daily News

Weather

Get conditions and forecasts for any City, State, ZIP code or Country:  
Trenton, NJ
on Monday, December 31, 2012

Monday
Previous Day Next Day
Daily Summary
 ActualAverageRecord
Temperature
Mean Temperature °F 32°F  
Max Temperature 41°F 40°F 63°F (1992)
Min Temperature 26°F 24°F -6°F (1917)
Degree Days
Heating Degree Days 31 33  
Month to date heating degree days 751 919  
Since 1 July heating degree days 1758 1895  
Cooling Degree Days 0 0  
Month to date cooling degree days 0 0  
Year to date cooling degree days 1234 965  
Moisture
Dew Point 20°F   
Average Humidity 61    
Maximum Humidity 69    
Minimum Humidity 52    
Precipitation
Precipitation 0.00 in 0.09 in 0.70 in (1906)
Month to date precipitation 4.23 3.70  
Year to date precipitation 37.46 46.44  
Wind
Wind Speed 7 mph   
Max Wind Speed 15 mph   
Max Gust Speed 22 mph   
Visibility 10 miles   
Events     

Key: T is trace of precipitation, MM is missing value
Source: NWS Daily Summary
Time(EST)TemperatureDew PointHumidity Pressure Visibility Wind DirectionWind SpeedGust SpeedPrecipitationEvents Conditions
12:53 AM 27.0°F 14.0°F 58% 30.21 in 10.0 miles WSW 5.8 mph - N/A   Scattered Clouds
1:53 AM 28.9°F 16.0°F 58% 30.21 in 10.0 miles West 4.6 mph - N/A   Overcast
2:53 AM 30.0°F 19.0°F 64% 30.22 in 10.0 miles West 8.1 mph - N/A   Overcast
3:53 AM 30.0°F 19.9°F 66% 30.21 in 10.0 miles West 6.9 mph - N/A   Mostly Cloudy
4:53 AM 28.9°F 19.0°F 67% 30.20 in 10.0 miles West 8.1 mph - N/A   Clear
5:53 AM 28.0°F 19.0°F 69% 30.19 in 10.0 miles West 6.9 mph - N/A   Clear
6:53 AM 28.9°F 19.0°F 67% 30.19 in 10.0 miles West 8.1 mph - N/A   Clear
7:53 AM 28.9°F 19.0°F 67% 30.19 in 10.0 miles WNW 6.9 mph - N/A   Clear
8:53 AM 28.9°F 19.0°F 67% 30.19 in 10.0 miles West 8.1 mph - N/A   Partly Cloudy
9:53 AM 30.0°F 19.9°F 66% 30.20 in 10.0 miles West 9.2 mph - N/A   Clear
10:53 AM 32.0°F 19.9°F 61% 30.17 in 10.0 miles West 8.1 mph - N/A   Clear
11:53 AM 34.0°F 21.0°F 59% 30.13 in 10.0 miles West 10.4 mph 17.3 mph N/A   Clear
12:53 PM 35.1°F 21.0°F 57% 30.10 in 10.0 miles WNW 10.4 mph - N/A   Clear
1:53 PM 35.1°F 21.9°F 59% 30.07 in 10.0 miles West 9.2 mph - N/A   Partly Cloudy
2:53 PM 36.0°F 21.0°F 55% 30.04 in 10.0 miles West 5.8 mph - N/A   Mostly Cloudy
3:53 PM 37.0°F 21.0°F 52% 30.01 in 10.0 miles WSW 6.9 mph - N/A   Overcast
4:53 PM 37.0°F 21.0°F 52% 30.00 in 10.0 miles WSW 9.2 mph - N/A   Overcast
5:53 PM 36.0°F 21.9°F 57% 30.00 in 10.0 miles WSW 6.9 mph - N/A   Overcast
7:53 PM 37.0°F 21.9°F 54% 29.95 in 10.0 miles West 4.6 mph - N/A   Overcast
10:53 PM 39.0°F 25.0°F 57% 29.92 in 10.0 miles West 4.6 mph - N/A   Overcast
11:53 PM 39.9°F 27.0°F 60% 29.91 in 10.0 miles WNW 10.4 mph 17.3 mph N/A   Overcast
Astronomy
Sunrise:07:21 AM (EST) Moon Rise:08:11 PM (EST)
Sunset:04:43 PM (EST) Moon Set:09:01 AM (EST)
Moon Phase
Dec. 31 Jan. 04 Jan. 11 Jan. 18 Jan. 26

Copyright © 2014 The Weather Underground, Inc.